DW4174 Weather Reports


time (UTC)temp
C
wind
direction
speed
KPH
gust
KPH
rain 1hr
cm
rain 24hr
cm
rain mn
cm
humidity
%
barometer
mb
20260904021026 34 155 11.3 19.3 0.00 0.00 0.00 41 1006.9
20260904020126 34 156 11.3 22.5 0.00 0.00 0.00 40 1007.0
20260904014326 34 163 11.3 22.5 0.00 0.00 0.00 39 1007.0
20260904013426 35 166 12.9 29.0 0.00 0.00 0.00 38 1006.9
20260904012526 35 179 11.3 27.4 0.00 0.00 0.00 37 1006.9
20260904011626 36 199 3.2 27.4 0.00 0.00 0.00 34 1006.6
20260904010726 37 181 4.8 11.3 0.00 0.00 0.00 32 1006.5
20260904005826 37 191 6.4 16.1 0.00 0.00 0.00 32 1006.6
20260904004926 37 188 6.4 16.1 0.00 0.00 0.00 31 1006.6
20260904004026 37 197 4.8 12.9 0.00 0.00 0.00 31 1006.6
20260904003126 37 193 3.2 12.9 0.00 0.00 0.00 31 1006.5
20260904002226 37 248 4.8 12.9 0.00 0.00 0.00 30 1006.5
20260904001325 37 201 6.4 11.3 0.00 0.00 0.00 30 1006.6
20260904000426 37 181 4.8 29.0 0.00 0.00 0.00 31 1006.4
20260903235526 37 154 4.8 14.5 0.00 0.00 0.00 30 1006.7
20260903232825 38 155 4.8 16.1 0.00 0.00 0.00 28 1006.8
20260903231926 38 201 4.8 12.9 0.00 0.00 0.00 29 1006.9
20260903231026 38 140 4.8 17.7 0.00 0.00 0.00 29 1007.0
20260903230125 38 192 3.2 9.7 0.00 0.00 0.00 29 1007.1
20260903225225 39 246 4.8 14.5 0.00 0.00 0.00 28 1007.1
20260903224326 39 244 4.8 14.5 0.00 0.00 0.00 28 1007.4
20260903223426 38 46 3.2 8.0 0.00 0.00 0.00 29 1007.5
20260903222525 38 160 6.4 14.5 0.00 0.00 0.00 30 1007.6
20260903221625 38 106 6.4 16.1 0.00 0.00 0.00 30 1007.7
20260903220725 38 215 6.4 17.7 0.00 0.00 0.00 29 1007.8
20260903215825 38 210 6.4 22.5 0.00 0.00 0.00 29 1007.9
20260903214926 39 303 6.4 16.1 0.00 0.00 0.00 28 1008.0
20260903214025 38 218 8.0 16.1 0.00 0.00 0.00 29 1008.3
20260903213125 38 155 6.4 20.9 0.00 0.00 0.00 30 1008.5
20260903212225 38 121 6.4 19.3 0.00 0.00 0.00 30 1008.6
20260903211325 38 137 6.4 16.1 0.00 0.00 0.00 30 1008.7
20260903210425 38 150 4.8 14.5 0.00 0.00 0.00 30 1008.9
20260903205525 38 187 8.0 19.3 0.00 0.00 0.00 29 1009.1
20260903204625 38 157 8.0 14.5 0.00 0.00 0.00 30 1009.2
20260903203725 38 173 8.0 16.1 0.00 0.00 0.00 29 1009.4
20260903202825 38 190 8.0 16.1 0.00 0.00 0.00 30 1009.6
20260903201925 38 177 8.0 20.9 0.00 0.00 0.00 29 1009.7
20260903201025 38 187 6.4 16.1 0.00 0.00 0.00 31 1009.7
20260903200125 38 158 8.0 17.7 0.00 0.00 0.00 30 1009.8
20260903195225 37 150 4.8 14.5 0.00 0.00 0.00 32 1009.9
20260903194325 36 125 4.8 12.9 0.00 0.00 0.00 32 1010.0
20260903193425 37 189 8.0 12.9 0.00 0.00 0.00 33 1010.2
20260903192525 37 128 6.4 19.3 0.00 0.00 0.00 34 1010.3
20260903191625 37 202 6.4 16.1 0.00 0.00 0.00 34 1010.5
20260903190725 36 148 6.4 19.3 0.00 0.00 0.00 34 1010.7
20260903185825 37 141 6.4 17.7 0.00 0.00 0.00 33 1010.8
20260903184025 36 160 6.4 17.7 0.00 0.00 0.00 36 1011.1
20260903182225 36 156 6.4 19.3 0.00 0.00 0.00 36 1011.4
20260903181325 36 149 6.4 14.5 0.00 0.00 0.00 37 1011.6
20260903180425 35 176 6.4 16.1 0.00 0.00 0.00 37 1011.7
20260903175525 36 160 6.4 19.3 0.00 0.00 0.00 38 1011.8
20260903174625 35 168 6.4 17.7 0.00 0.00 0.00 39 1011.9
20260903173725 35 157 6.4 14.5 0.00 0.00 0.00 41 1011.9
20260903172825 35 132 6.4 16.1 0.00 0.00 0.00 39 1011.9
20260903171925 35 127 6.4 19.3 0.00 0.00 0.00 41 1012.0
20260903171025 35 131 6.4 19.3 0.00 0.00 0.00 42 1012.0
20260903170125 33 107 6.4 16.1 0.00 0.00 0.00 44 1012.0
20260903165225 34 142 4.8 16.1 0.00 0.00 0.00 43 1012.0
20260903164325 33 109 4.8 14.5 0.00 0.00 0.00 43 1012.0
20260903163425 33 162 4.8 14.5 0.00 0.00 0.00 44 1012.0
20260903162525 33 142 4.8 12.9 0.00 0.00 0.00 46 1012.1
20260903161625 33 141 4.8 12.9 0.00 0.00 0.00 46 1012.2
20260903155825 32 163 4.8 11.3 0.00 0.00 0.00 49 1012.3
20260903154925 32 168 3.2 14.5 0.00 0.00 0.00 50 1012.3
20260903154025 32 191 3.2 9.7 0.00 0.00 0.00 50 1012.3
20260903153125 31 174 4.8 9.7 0.00 0.00 0.00 52 1012.3
20260903152225 31 162 4.8 9.7 0.00 0.00 0.00 52 1012.3
20260903150425 31 128 3.2 6.4 0.00 0.00 0.00 55 1012.3
20260903145525 30 161 3.2 9.7 0.00 0.00 0.00 56 1012.4
20260903144625 30 144 3.2 8.0 0.00 0.00 0.00 57 1012.4
20260903143725 30 150 1.6 8.0 0.00 0.00 0.00 58 1012.4
20260903142825 29 136 1.6 11.3 0.00 0.00 0.00 59 1012.4
20260903141925 29 102 1.6 9.7 0.00 0.00 0.00 60 1012.3
20260903135225 28 95 0.0 3.2 0.00 0.00 0.00 61 1012.0
20260903134325 28 95 0.0 3.2 0.00 0.00 0.00 61 1011.8
20260903133425 28 95 1.6 3.2 0.00 0.00 0.00 61 1011.7
20260903132525 28 96 1.6 4.8 0.00 0.00 0.00 60 1011.5
20260903131625 28 96 1.6 6.4 0.00 0.00 0.00 60 1011.5
20260903130725 28 97 0.0 6.4 0.00 0.00 0.00 59 1011.4
20260903124925 28 98 3.2 6.4 0.00 0.00 0.00 58 1011.2
20260903124025 28 103 3.2 6.4 0.00 0.00 0.00 57 1011.2
20260903123125 28 111 0.0 9.7 0.00 0.00 0.00 57 1011.1
20260903122225 28 119 1.6 4.8 0.00 0.00 0.00 57 1011.0
20260903121325 28 120 0.0 6.4 0.00 0.00 0.00 57 1010.9
20260903120425 28 122 0.0 1.6 0.00 0.00 0.00 56 1010.8
20260903115524 28 122 0.0 1.6 0.00 0.00 0.00 55 1010.7
20260903114624 28 122 0.0 4.8 0.00 0.00 0.00 55 1010.7
20260903113724 28 122 0.0 1.6 0.00 0.00 0.00 55 1010.6
20260903111925 29 122 1.6 4.8 0.00 0.00 0.00 54 1010.6
20260903111024 29 122 1.6 3.2 0.00 0.00 0.00 54 1010.5
20260903110125 29 123 0.0 3.2 0.00 0.00 0.00 54 1010.5
20260903105225 28 0 0.0 0.0 0.00 0.00 0.00 54 1010.5
20260903103424 29 123 0.0 3.2 0.00 0.00 0.00 52 1010.4
20260903102524 29 122 0.0 1.6 0.00 0.00 0.00 52 1010.4
20260903101624 29 122 0.0 1.6 0.00 0.00 0.00 51 1010.3
20260903100724 30 123 1.6 4.8 0.00 0.00 0.00 51 1010.4
20260903095824 29 127 0.0 4.8 0.00 0.00 0.00 51 1010.5
20260903094024 29 163 0.0 3.2 0.00 0.00 0.00 52 1010.5
20260903091324 30 164 0.0 3.2 0.00 0.00 0.00 51 1010.4
20260903090424 30 164 0.0 1.6 0.00 0.00 0.00 51 1010.3
20260903085524 30 164 0.0 6.4 0.00 0.00 0.00 50 1010.2
20260903084624 30 163 0.0 1.6 0.00 0.00 0.00 50 1010.3
20260903081924 31 163 0.0 6.4 0.00 0.00 0.00 49 1010.3
20260903081024 31 162 0.0 6.4 0.00 0.00 0.00 48 1010.3
20260903080124 31 162 0.0 1.6 0.00 0.00 0.00 48 1010.4
20260903075224 31 161 1.6 6.4 0.00 0.00 0.00 47 1010.3
20260903074324 31 161 1.6 3.2 0.00 0.00 0.00 47 1010.3
20260903073424 32 161 0.0 6.4 0.00 0.00 0.00 46 1010.4
20260903072524 32 161 1.6 3.2 0.00 0.00 0.00 44 1010.3
20260903071624 32 162 1.6 6.4 0.00 0.00 0.00 40 1010.3
20260903070724 32 184 1.6 6.4 0.00 0.00 0.00 34 1010.3
20260903065824 32 286 3.2 6.4 0.00 0.00 0.00 27 1010.2
20260903064924 33 284 3.2 9.7 0.00 0.00 0.00 27 1010.0
20260903064024 33 272 3.2 11.3 0.00 0.00 0.00 27 1010.0
20260903063124 33 276 3.2 11.3 0.00 0.00 0.00 27 1009.9
20260903062224 33 273 4.8 6.4 0.00 0.00 0.00 27 1009.9
20260903061324 33 267 6.4 11.3 0.00 0.00 0.00 28 1010.0
20260903060424 33 263 6.4 12.9 0.00 0.00 0.00 29 1010.0
20260903055524 33 262 4.8 12.9 0.00 0.00 0.00 32 1009.9
20260903054624 33 262 6.4 12.9 0.00 0.00 0.00 35 1009.9
20260903052824 33 274 1.6 4.8 0.00 0.00 0.00 39 1010.1
20260903051924 33 272 1.6 4.8 0.00 0.00 0.00 38 1010.0
20260903051024 34 269 3.2 6.4 0.00 0.00 0.00 37 1010.0
20260903050124 34 270 3.2 6.4 0.00 0.00 0.00 37 1010.0
20260903045224 34 269 3.2 6.4 0.00 0.00 0.00 37 1010.0
20260903044324 34 259 3.2 11.3 0.00 0.00 0.00 37 1010.0
20260903043424 35 272 4.8 9.7 0.00 0.00 0.00 37 1010.0
20260903041624 35 257 4.8 11.3 0.00 0.00 0.00 36 1009.9
20260903035824 35 272 4.8 12.9 0.00 0.00 0.00 36 1009.8
20260903034024 35 275 6.4 12.9 0.00 0.00 0.00 34 1009.5
20260903033124 35 272 4.8 12.9 0.00 0.00 0.00 34 1009.4
20260903032224 35 273 3.2 11.3 0.00 0.00 0.00 33 1009.3
20260903031324 35 282 4.8 6.4 0.00 0.00 0.00 33 1009.3
20260903030424 35 273 6.4 11.3 0.00 0.00 0.00 32 1009.3
20260903025524 36 264 6.4 14.5 0.00 0.00 0.00 32 1009.2
20260903023724 36 266 8.0 14.5 0.00 0.00 0.00 32 1009.0
20260903022824 36 270 9.7 14.5 0.00 0.00 0.00 31 1009.0
20260903021924 36 268 8.0 17.7 0.00 0.00 0.00 31 1008.9